When you browse on this site, cookies collect data to enhance your experience and personalize the content and advertising you see.
Visit our Privacy Policy to learn more. By continuing to use the site, you agree to this use of cookies and data.
  • Em Portugal
  • Lista de países
  • Para 7 dias
  • Temperatura da água
  • Mapas de satélite
  • Mapa do tempo
  • Widgets de tempo
  • user-avatar
    Iniciar Sessão

    Previsão horária em Witkow

    Hoje, 24 Março, Domingo

    Tempo Temperatura Precipitação Vento Pressão Humidade
    00:00 +8°C° 0 mm 2 m/s 752 mmHg 89%
    01:00 +8°C° 0 mm 1 m/s 753 mmHg 89%
    02:00 +8°C° 0 mm 1 m/s 753 mmHg 89%
    03:00 +8°C° 0 mm 1 m/s 753 mmHg 89%
    04:00 +7°C° 0 mm 1 m/s 753 mmHg 89%
    05:00 +7°C° 0 mm 1 m/s 753 mmHg 89%
    06:00 +7°C° 0 mm 1 m/s 753 mmHg 89%
    07:00 +7°C° 0 mm 1 m/s 752 mmHg 89%
    08:00 +8°C° 0 mm 1 m/s 752 mmHg 78%
    09:00 +9°C° 0 mm 1 m/s 752 mmHg 68%
    10:00 +10°C° 0 mm 1 m/s 752 mmHg 57%
    11:00 +11°C° 0 mm 1 m/s 751 mmHg 54%
    12:00 +12°C° 0 mm 1 m/s 751 mmHg 50%
    13:00 +13°C° 0 mm 1 m/s 750 mmHg 46%
    14:00 +12°C° 0 mm 1 m/s 750 mmHg 48%
    15:00 +11°C° 0 mm 0 m/s 749 mmHg 49%
    16:00 +10°C° 0 mm 0 m/s 749 mmHg 51%
    17:00 +10°C° 0 mm 0 m/s 748 mmHg 54%
    18:00 +10°C° 0 mm 1 m/s 748 mmHg 57%
    19:00 +10°C° 0 mm 1 m/s 748 mmHg 60%
    20:00 +8°C° 0 mm 2 m/s 747 mmHg 62%
    21:00 +8°C° 0 mm 2 m/s 747 mmHg 64%
    22:00 +7°C° 0 mm 3 m/s 747 mmHg 66%
    23:00 +7°C° 0 mm 2 m/s 747 mmHg 68%

    Amanhã, 25 Março, Segunda-feira

    Tempo Temperatura Precipitação Vento Pressão Humidade
    00:00 +6°C° 0 mm 2 m/s 746 mmHg 70%
    01:00 +5°C° 0 mm 2 m/s 746 mmHg 73%
    02:00 +5°C° 0 mm 2 m/s 745 mmHg 76%
    03:00 +3°C° 0 mm 3 m/s 745 mmHg 80%
    04:00 +3°C° 0 mm 3 m/s 744 mmHg 83%
    05:00 +1°C° 0 mm 4 m/s 744 mmHg 81%
    06:00 +1°C° 0 mm 4 m/s 744 mmHg 80%
    07:00 +1°C° 0 mm 4 m/s 743 mmHg 78%
    08:00 +3°C° 0.1 mm 5 m/s 743 mmHg 71%
    09:00 +4°C° 0.1 mm 6 m/s 743 mmHg 64%
    10:00 +5°C° 0.1 mm 7 m/s 743 mmHg 57%
    11:00 +5°C° 0.5 mm 7 m/s 743 mmHg 59%
    12:00 +5°C° 0.5 mm 6 m/s 743 mmHg 61%
    13:00 +4°C° 0.5 mm 6 m/s 743 mmHg 64%
    14:00 +5°C° 0.2 mm 6 m/s 743 mmHg 61%
    15:00 +5°C° 0.2 mm 6 m/s 743 mmHg 57%
    16:00 +6°C° 0.2 mm 5 m/s 743 mmHg 54%
    17:00 +5°C° 0.3 mm 4 m/s 744 mmHg 61%
    18:00 +4°C° 0.3 mm 4 m/s 744 mmHg 69%
    19:00 +3°C° 0.3 mm 3 m/s 745 mmHg 77%
    20:00 +2°C° 0.1 mm 3 m/s 746 mmHg 80%
    21:00 +2°C° 0.1 mm 3 m/s 747 mmHg 84%
    22:00 +1°C° 0.1 mm 3 m/s 747 mmHg 87%
    23:00 +1°C° 0 mm 3 m/s 748 mmHg 88%

    Depois de amanhã, 26 Março, Terça-feira

    Tempo Temperatura Precipitação Vento Pressão Humidade
    00:00 0°C° 0 mm 3 m/s 749 mmHg 90%
    01:00 0°C° 0 mm 3 m/s 749 mmHg 91%
    02:00 0°C° 0 mm 3 m/s 750 mmHg 93%
    03:00 -1°C° 0 mm 3 m/s 750 mmHg 94%
    04:00 -1°C° 0 mm 3 m/s 751 mmHg 96%
    05:00 -1°C° 0 mm 3 m/s 751 mmHg 95%
    06:00 0°C° 0 mm 3 m/s 751 mmHg 94%
    07:00 -1°C° 0 mm 4 m/s 752 mmHg 92%
    08:00 +1°C° 0 mm 4 m/s 752 mmHg 85%
    09:00 +3°C° 0 mm 5 m/s 752 mmHg 77%
    10:00 +4°C° 0 mm 6 m/s 752 mmHg 70%
    11:00 +5°C° 0 mm 6 m/s 752 mmHg 66%
    12:00 +6°C° 0 mm 7 m/s 752 mmHg 63%
    13:00 +7°C° 0 mm 8 m/s 752 mmHg 59%
    14:00 +6°C° 0 mm 8 m/s 752 mmHg 60%
    15:00 +6°C° 0 mm 8 m/s 751 mmHg 61%
    16:00 +5°C° 0 mm 7 m/s 751 mmHg 62%
    17:00 +4°C° 0.1 mm 7 m/s 752 mmHg 65%
    18:00 +3°C° 0.1 mm 6 m/s 752 mmHg 68%
    19:00 +2°C° 0.1 mm 5 m/s 752 mmHg 71%
    20:00 +2°C° 0 mm 5 m/s 752 mmHg 72%
    21:00 +3°C° 0 mm 4 m/s 753 mmHg 74%
    22:00 +3°C° 0 mm 4 m/s 753 mmHg 76%
    23:00 +3°C° 0.1 mm 4 m/s 753 mmHg 80%

    27 Março, Quarta-feira

    Tempo Temperatura Precipitação Vento Pressão Humidade
    00:00 +2°C° 0.1 mm 3 m/s 753 mmHg 84%
    01:00 +2°C° 0.1 mm 3 m/s 753 mmHg 88%
    02:00 +1°C° 0 mm 3 m/s 753 mmHg 90%
    03:00 +1°C° 0 mm 3 m/s 753 mmHg 93%
    04:00 0°C° 0 mm 3 m/s 753 mmHg 95%
    05:00 +1°C° 0 mm 3 m/s 753 mmHg 94%
    06:00 +1°C° 0 mm 3 m/s 753 mmHg 93%
    07:00 +1°C° 0 mm 3 m/s 754 mmHg 91%
    08:00 +3°C° 0 mm 3 m/s 754 mmHg 86%
    09:00 +4°C° 0 mm 3 m/s 754 mmHg 80%
    10:00 +6°C° 0 mm 4 m/s 754 mmHg 74%
    11:00 +7°C° 0 mm 4 m/s 754 mmHg 70%
    12:00 +7°C° 0 mm 5 m/s 754 mmHg 66%
    13:00 +8°C° 0 mm 5 m/s 754 mmHg 62%
    14:00 +8°C° 0 mm 5 m/s 754 mmHg 63%
    15:00 +8°C° 0 mm 5 m/s 753 mmHg 63%
    16:00 +7°C° 0 mm 5 m/s 753 mmHg 64%
    17:00 +7°C° 0.2 mm 4 m/s 753 mmHg 71%
    18:00 +7°C° 0.2 mm 3 m/s 754 mmHg 77%
    19:00 +5°C° 0.2 mm 3 m/s 754 mmHg 84%
    20:00 +6°C° 0.2 mm 2 m/s 754 mmHg 86%
    21:00 +6°C° 0.2 mm 2 m/s 754 mmHg 89%
    22:00 +6°C° 0.2 mm 2 m/s 754 mmHg 91%
    23:00 +6°C° 0 mm 2 m/s 754 mmHg 93%

    28 Março, Quinta-feira

    Tempo Temperatura Precipitação Vento Pressão Humidade
    00:00 +5°C° 0 mm 2 m/s 755 mmHg 94%
    01:00 +5°C° 0 mm 2 m/s 755 mmHg 96%
    02:00 +5°C° 0 mm 2 m/s 755 mmHg 96%
    03:00 +5°C° 0 mm 2 m/s 755 mmHg 96%
    04:00 +5°C° 0 mm 2 m/s 755 mmHg 96%
    05:00 +5°C° 0 mm 2 m/s 755 mmHg 95%
    06:00 +5°C° 0 mm 2 m/s 755 mmHg 94%
    07:00 +5°C° 0 mm 2 m/s 755 mmHg 93%
    08:00 +7°C° 0 mm 2 m/s 756 mmHg 85%
    09:00 +8°C° 0 mm 2 m/s 756 mmHg 76%
    10:00 +9°C° 0 mm 2 m/s 756 mmHg 68%
    11:00 +10°C° 0 mm 2 m/s 756 mmHg 66%
    12:00 +10°C° 0 mm 2 m/s 756 mmHg 64%
    13:00 +11°C° 0 mm 3 m/s 756 mmHg 62%
    14:00 +10°C° 0 mm 2 m/s 756 mmHg 63%
    15:00 +10°C° 0 mm 2 m/s 756 mmHg 63%
    16:00 +10°C° 0 mm 2 m/s 756 mmHg 64%
    17:00 +10°C° 0 mm 2 m/s 756 mmHg 68%
    18:00 +9°C° 0 mm 2 m/s 756 mmHg 73%
    19:00 +8°C° 0 mm 2 m/s 756 mmHg 78%
    20:00 +8°C° 0 mm 2 m/s 756 mmHg 80%
    21:00 +7°C° 0 mm 2 m/s 756 mmHg 82%
    22:00 +7°C° 0 mm 2 m/s 757 mmHg 84%
    23:00 +7°C° 0 mm 2 m/s 757 mmHg 85%

    29 Março, Sexta-feira

    Tempo Temperatura Precipitação Vento Pressão Humidade
    00:00 +7°C° 0 mm 2 m/s 757 mmHg 87%
    01:00 +6°C° 0 mm 2 m/s 757 mmHg 88%
    02:00 +6°C° 0 mm 2 m/s 757 mmHg 90%
    03:00 +5°C° 0 mm 2 m/s 757 mmHg 92%
    04:00 +4°C° 0 mm 2 m/s 757 mmHg 95%
    05:00 +5°C° 0 mm 2 m/s 757 mmHg 93%
    06:00 +5°C° 0 mm 2 m/s 757 mmHg 91%
    07:00 +5°C° 0 mm 2 m/s 757 mmHg 89%
    08:00 +7°C° 0 mm 2 m/s 757 mmHg 80%
    09:00 +9°C° 0 mm 2 m/s 757 mmHg 71%
    10:00 +12°C° 0 mm 2 m/s 757 mmHg 62%
    11:00 +13°C° 0 mm 2 m/s 757 mmHg 58%
    12:00 +14°C° 0 mm 2 m/s 757 mmHg 54%
    13:00 +15°C° 0 mm 2 m/s 756 mmHg 50%
    14:00 +15°C° 0 mm 2 m/s 756 mmHg 52%
    15:00 +15°C° 0 mm 2 m/s 755 mmHg 54%
    16:00 +15°C° 0 mm 2 m/s 755 mmHg 56%
    17:00 +13°C° 0 mm 2 m/s 755 mmHg 65%
    18:00 +10°C° 0 mm 2 m/s 755 mmHg 73%
    19:00 +10°C° 0 mm 1 m/s 755 mmHg 82%
    20:00 +9°C° 0 mm 1 m/s 755 mmHg 84%
    21:00 +9°C° 0 mm 1 m/s 755 mmHg 87%
    22:00 +8°C° 0 mm 1 m/s 755 mmHg 89%
    23:00 +8°C° 0 mm 1 m/s 755 mmHg 90%
    Mostrar mais